Change the Weather History Date:

Saturday, November 12, 2011

  Actual Average Record
Temperature  
Mean Temperature 44 °F 33 °F  
Max Temperature 59 °F 42 °F 73 °F (1936)
Min Temperature 28 °F 24 °F -5 °F (1940)
Degree Days  
Heating Degree Days 21 32  
Month to date heating degree days 290 349  
Since 1 July heating degree days 939 1176  
Cooling Degree Days 0 0  
Month to date cooling degree days 0 0  
Year to date cooling degree days 642 527  
Moisture  
Dew Point 21 °F    
Average Humidity 41    
Maximum Humidity 58    
Minimum Humidity 23    
Precipitation  
Precipitation 0.00 in 0.03 in 0.62 in (2000)
Month to date precipitation 0.06 0.34  
Year to date precipitation 21.03 21.70  
Snow  
Snow 0.00 in - - ()
Month to date snowfall 0.0  
Since 1 July snowfall 0.0  
Snow Depth 0.00 in    
Sea Level Pressure  
Sea Level Pressure 29.29 in    
Wind  
Wind Speed 9 mph (SW)    
Max Wind Speed 21 mph    
Max Gust Speed 25 mph    
T = Trace of Precipitation, MM = Missing Value Source: NWS Daily Summary

Daily Weather History Graph

Daily Weather History Graph

Search for Another Location

Airport or City:

Trip Planner

Search our weather history database for the weather conditions in past years. The results will help you decide how hot, cold, wet, or windy it might be!

Date:

Astronomy

Nov. 12, 2011 Rise Set
Actual Time 7:22 AM CST 5:00 PM CST
Civil Twilight 6:51 AM CST 5:32 PM CST
Nautical Twilight 6:15 AM CST 6:08 PM CST
Astronomical Twilight 5:40 AM CST 6:43 PM CST
Moon 6:11 PM CST (11/12) 9:12 AM CST (11/12)
Length of Visible Light 10h 41m
Length of Day
9h 37m
Full, 97% of the Moon is Illuminated
Nov 12
Full
Nov 18
Last Quarter
Nov 25
New
Dec 2
First Quarter
Dec 10
Full

Hourly Weather History & Observations

Time (CST) Temp. Windchill Dew Point Humidity Pressure Visibility Wind Dir Wind Speed Gust Speed Precip Events Conditions
12:56 AM 46.0 °F 39.9 °F 21.0 °F 37% 29.47 in - WSW 13.8 mph - N/A   Unknown
1:56 AM 46.9 °F - 19.0 °F 33% 29.44 in - WSW 18.4 mph - N/A   Unknown
2:56 AM 46.9 °F - 18.0 °F 32% 29.44 in - WSW 12.7 mph - N/A   Unknown
3:56 AM 46.0 °F 42.5 °F 17.1 °F 31% 29.42 in - WSW 6.9 mph - N/A   Unknown
4:56 AM 44.1 °F 40.1 °F 16.0 °F 32% 29.41 in - SSE 6.9 mph - N/A   Unknown
5:56 AM 41.0 °F 39.0 °F 17.1 °F 38% 29.40 in - SE 3.5 mph - N/A   Unknown
6:56 AM 33.1 °F - 17.1 °F 52% 29.40 in - Calm Calm - N/A   Unknown
7:56 AM 30.0 °F 26.5 °F 17.1 °F 59% 29.39 in - SSE 3.5 mph - N/A   Unknown
8:56 AM 44.1 °F 39.5 °F 21.0 °F 40% 29.36 in - SSE 8.1 mph - N/A   Unknown
9:56 AM 46.0 °F 41.9 °F 21.9 °F 39% 29.35 in - SSE 8.1 mph - N/A   Unknown
10:56 AM 48.9 °F - 25.0 °F 39% 29.33 in - ESE 6.9 mph - N/A   Unknown
11:56 AM 52.0 °F - 24.1 °F 34% 29.30 in - SSE 8.1 mph - N/A   Unknown
12:56 PM 57.9 °F - 21.0 °F 24% 29.25 in - SSE 13.8 mph - N/A   Unknown
1:56 PM 59.0 °F - 21.9 °F 24% 29.20 in - SSW 12.7 mph - N/A   Unknown
2:56 PM 57.9 °F - 21.9 °F 25% 29.19 in - South 5.8 mph - N/A   Unknown
3:56 PM 55.9 °F - 23.0 °F 28% 29.18 in - SW 11.5 mph - N/A   Unknown
4:56 PM 51.1 °F - 21.9 °F 32% 29.19 in - WSW 5.8 mph - N/A   Unknown
5:56 PM 48.0 °F - 21.0 °F 34% 29.19 in - SW 4.6 mph - N/A   Unknown
6:56 PM 43.0 °F 38.2 °F 21.9 °F 43% 29.20 in - WSW 8.1 mph - N/A   Unknown
7:56 PM 45.0 °F 41.8 °F 21.0 °F 39% 29.18 in - WSW 5.8 mph - N/A   Unknown
8:56 PM 46.0 °F 41.9 °F 21.0 °F 37% 29.16 in - NNW 8.1 mph - N/A   Unknown
9:56 PM 46.0 °F 40.6 °F 21.9 °F 39% 29.16 in - NW 11.5 mph - N/A   Unknown
10:56 PM 46.0 °F 40.6 °F 21.0 °F 37% 29.16 in - NW 11.5 mph - N/A   Unknown
11:56 PM 45.0 °F 38.9 °F 21.9 °F 40% 29.17 in - NNW 12.7 mph - N/A   Unknown